{"data":{"norad_id":54858,"intl_designator":"2022-177AQ","name":"STARLINK-5407","alt_names":[],"object_type":"PAYLOAD","status":"ACTIVE","operator":null,"country":"US","launch_date":"2022-12-28","launch_site_code":"AFETR","launch_vehicle":null,"mission":null,"orbit_class":"UNKNOWN","rcs_meters":null,"size_class":null,"mass_kg":null,"dimensions":null,"purposes":["comms"],"wikipedia_slug":null,"has_3d_model":false,"image_url":null,"decayed_at":null,"tle_current":{"epoch":"2026-05-25T03:10:41.507904Z","epoch_age_seconds":56765,"freshness":"FRESH","line1":"1 54858U 22177AQ  26145.13242486  .00000968  00000+0  44684-4 0  9999","line2":"2 54858  43.0062  49.6944 0001350 271.1307  88.9390 15.27581139188784","mean_motion":15.27581139,"eccentricity":0.000135,"inclination_deg":43.0062,"raan_deg":49.6944,"arg_perigee_deg":271.1307,"mean_anomaly_deg":88.939,"bstar":4.4684e-5,"rev_number":18878,"period_min":94.266678426173,"perigee_km":482.11942580348,"apogee_km":483.97194512856,"semimajor_km":6861.182685466,"source":"CELESTRAK","updated_at":"2026-05-25T13:38:17.727066Z"}}}